TimeCEST,TemperatureF,Dew PointF,Humidity,Sea Level PressureIn,VisibilityMPH,Wind Direction,Wind SpeedMPH,Gust SpeedMPH,PrecipitationIn,Events,Conditions,WindDirDegrees,DateUTC
12:20 AM,68.0,66.2,94,30.06,6.2,Variable,2.3,-,N/A,,Scattered Clouds,0,2013-10-11 22:20:00
12:50 AM,68.0,64.4,88,30.06,6.2,Variable,1.2,-,N/A,,Mostly Cloudy,0,2013-10-11 22:50:00
1:20 AM,68.0,64.4,88,30.06,6.2,Variable,2.3,-,N/A,,Mostly Cloudy,0,2013-10-11 23:20:00
1:50 AM,66.2,64.4,94,30.04,6.2,North,3.5,-,N/A,,Mostly Cloudy,350,2013-10-11 23:50:00
2:20 AM,66.2,64.4,94,30.04,6.2,NE,2.3,-,N/A,,Partly Cloudy,50,2013-10-12 00:20:00
2:50 AM,64.4,62.6,94,30.04,6.2,Variable,1.2,-,N/A,,Partly Cloudy,0,2013-10-12 00:50:00
3:20 AM,64.4,62.6,94,30.04,6.2,Variable,2.3,-,N/A,,Partly Cloudy,0,2013-10-12 01:20:00
3:50 AM,66.2,62.6,88,30.04,6.2,Variable,1.2,-,N/A,,Partly Cloudy,0,2013-10-12 01:50:00
4:20 AM,64.4,62.6,94,30.04,6.2,NE,3.5,-,N/A,,Partly Cloudy,40,2013-10-12 02:20:00
4:50 AM,64.4,60.8,88,30.04,6.2,NE,3.5,-,N/A,,Partly Cloudy,40,2013-10-12 02:50:00
5:20 AM,66.2,62.6,88,30.04,5.0,NNE,5.8,-,N/A,Rain,Light Rain,20,2013-10-12 03:20:00
5:50 AM,66.2,62.6,88,30.06,6.2,Variable,1.2,-,N/A,,Scattered Clouds,0,2013-10-12 03:50:00
6:20 AM,66.2,62.6,88,30.06,6.2,North,4.6,-,N/A,Rain,Light Rain,10,2013-10-12 04:20:00
6:50 AM,66.2,62.6,88,30.06,6.2,Variable,3.5,-,N/A,Rain,Light Rain,0,2013-10-12 04:50:00
7:20 AM,64.4,62.6,94,30.06,3.7,Variable,2.3,-,N/A,Rain,Rain,0,2013-10-12 05:20:00
7:50 AM,64.4,60.8,88,30.04,5.0,East,3.5,-,N/A,Rain,Light Rain,80,2013-10-12 05:50:00
8:20 AM,66.2,62.6,88,30.06,5.0,Variable,2.3,-,N/A,Rain,Light Rain,0,2013-10-12 06:20:00
8:50 AM,66.2,62.6,88,30.09,5.0,West,6.9,-,N/A,Rain,Rain,270,2013-10-12 06:50:00
9:20 AM,64.4,60.8,88,30.15,3.1,SSW,16.1,-,N/A,Rain-Thunderstorm,Thunderstorms and Rain,200,2013-10-12 07:20:00
9:50 AM,66.2,64.4,94,30.12,3.1,SSE,5.8,-,N/A,Rain-Thunderstorm,Thunderstorms and Rain,150,2013-10-12 07:50:00
10:20 AM,64.4,62.6,94,30.06,5.0,ENE,9.2,-,N/A,Rain,Light Rain,60,2013-10-12 08:20:00
10:50 AM,66.2,62.6,88,30.06,6.2,NE,5.8,-,N/A,Rain,Light Rain,50,2013-10-12 08:50:00
11:20 AM,68.0,62.6,83,30.09,6.2,Variable,2.3,-,N/A,,Mostly Cloudy,0,2013-10-12 09:20:00
11:50 AM,69.8,64.4,83,30.06,6.2,Variable,3.5,-,N/A,,Mostly Cloudy,0,2013-10-12 09:50:00
12:20 PM,71.6,64.4,78,30.09,6.2,West,6.9,-,N/A,,Scattered Clouds,270,2013-10-12 10:20:00
12:50 PM,75.2,59.0,57,30.09,6.2,WSW,5.8,-,N/A,,Scattered Clouds,250,2013-10-12 10:50:00
1:20 PM,75.2,57.2,53,30.09,6.2,NW,3.5,-,N/A,,Scattered Clouds,320,2013-10-12 11:20:00
4:50 PM,71.6,62.6,73,30.12,6.2,NNW,5.8,-,N/A,,Mostly Cloudy,340,2013-10-12 14:50:00
5:20 PM,71.6,64.4,78,30.09,6.2,NNE,4.6,-,N/A,,Scattered Clouds,20,2013-10-12 15:20:00
5:50 PM,69.8,62.6,78,30.09,6.2,North,5.8,-,N/A,,Scattered Clouds,10,2013-10-12 15:50:00
6:20 PM,69.8,62.6,78,30.09,6.2,North,3.5,-,N/A,,Scattered Clouds,10,2013-10-12 16:20:00
6:50 PM,69.8,62.6,78,30.12,6.2,North,4.6,-,N/A,,Scattered Clouds,350,2013-10-12 16:50:00
7:20 PM,69.8,62.6,78,30.12,6.2,NNW,5.8,-,N/A,,Scattered Clouds,330,2013-10-12 17:20:00
7:50 PM,69.8,64.4,83,30.12,6.2,North,5.8,-,N/A,,Scattered Clouds,350,2013-10-12 17:50:00
8:20 PM,69.8,64.4,83,30.12,6.2,North,5.8,-,N/A,,Scattered Clouds,350,2013-10-12 18:20:00
8:50 PM,69.8,62.6,78,30.12,6.2,NNW,4.6,-,N/A,,Scattered Clouds,340,2013-10-12 18:50:00
9:20 PM,69.8,62.6,78,30.15,6.2,North,4.6,-,N/A,,Scattered Clouds,360,2013-10-12 19:20:00
9:50 PM,69.8,62.6,78,30.12,6.2,Variable,2.3,-,N/A,,Partly Cloudy,0,2013-10-12 19:50:00
10:20 PM,69.8,60.8,73,30.12,6.2,Variable,2.3,-,N/A,,Partly Cloudy,0,2013-10-12 20:20:00
10:50 PM,66.2,62.6,88,30.12,6.2,Calm,Calm,-,N/A,,Partly Cloudy,0,2013-10-12 20:50:00
11:20 PM,68.0,62.6,83,30.12,6.2,NNW,3.5,-,N/A,,Partly Cloudy,330,2013-10-12 21:20:00
11:50 PM,66.2,62.6,88,30.12,-9999.0,NW,3.5,-,N/A,,Clear,310,2013-10-12 21:50:00